AL7PB Weather Reports


Display with metric or nautical units.
time (UTC)temp
F
wind
direction
speed
MPH
gust
MPH
rain 1hr
in
rain 24hr
in
rain mn
in
humidity
%
barometer
mb
20260506051114 57 0 0.0 0.0 0.00 0.00 0.00 78 1008.3
20260506044503 58 0 0.0 0.0 0.00 0.00 0.00 75 1008.0
20260506043603 59 0 0.0 0.0 0.00 0.00 0.00 74 1008.2
20260506042703 60 0 0.0 0.0 0.00 0.00 0.00 73 1008.2
20260506041803 60 0 0.0 0.0 0.00 0.00 0.00 71 1008.2
20260506041115 61 0 0.0 0.0 0.00 0.00 0.00 71 1008.2
20260506040212 62 0 0.0 0.0 0.00 0.00 0.00 69 1008.2
20260506035403 62 0 0.0 0.0 0.00 0.00 0.00 68 1008.2
20260506034716 62 0 0.0 0.0 0.00 0.00 0.00 68 1008.2
20260506033814 63 0 0.0 0.0 0.00 0.00 0.00 66 1008.0
20260506032916 64 0 0.0 0.0 0.00 0.00 0.00 65 1007.9
20260506031803 66 0 0.0 0.0 0.00 0.00 0.00 62 1007.8
20260506030903 67 0 0.0 0.0 0.00 0.00 0.00 61 1007.6
20260506030213 67 0 0.0 0.0 0.00 0.00 0.00 60 1007.6
20260506025403 67 0 0.0 0.0 0.00 0.00 0.00 61 1007.4
20260506024717 68 0 0.0 0.0 0.00 0.00 0.00 60 1007.3
20260506023814 68 0 0.0 0.0 0.00 0.00 0.00 60 1007.1
20260506022703 69 0 0.0 0.0 0.00 0.00 0.00 59 1006.7
20260506022014 69 0 0.0 0.0 0.00 0.00 0.00 58 1006.7
20260506020903 70 0 0.0 0.0 0.00 0.00 0.00 57 1006.6
20260506020003 70 0 0.0 0.0 0.00 0.00 0.00 57 1006.4
20260506015615 70 0 0.0 0.0 0.00 0.00 0.00 57 1006.3
20260506014503 71 0 0.0 0.0 0.00 0.00 0.00 56 1006.3
20260506013815 72 0 0.0 0.0 0.00 0.00 0.00 56 1006.0
20260506012917 73 0 0.0 0.0 0.00 0.00 0.00 54 1005.7
20260506012015 74 0 0.0 0.0 0.00 0.00 0.00 52 1005.6
20260506010903 74 0 0.0 0.0 0.00 0.00 0.00 51 1005.4
20260506010214 75 0 0.0 0.0 0.00 0.00 0.00 52 1005.2
20260506005403 75 0 0.0 0.0 0.00 0.00 0.00 51 1005.0
20260506004503 76 0 0.0 0.0 0.00 0.00 0.00 51 1005.0
20260506003603 77 0 0.0 0.0 0.00 0.00 0.00 50 1004.9
20260506002913 77 0 0.0 0.0 0.00 0.00 0.00 49 1004.7
20260506002015 78 0 0.0 0.0 0.00 0.00 0.00 48 1004.4
20260506001113 78 0 0.0 0.0 0.00 0.00 0.00 48 1004.4
20260506000215 79 0 0.0 0.0 0.00 0.00 0.00 48 1004.5
20260505235617 80 0 0.0 0.0 0.00 0.00 0.00 48 1004.2
20260505234714 81 0 0.0 0.0 0.00 0.00 0.00 46 1003.6
20260505233603 82 0 0.0 0.0 0.00 0.00 0.00 43 1003.8
20260505232913 83 0 0.0 0.0 0.00 0.00 0.00 42 1003.9
20260505232016 85 0 0.0 0.0 0.00 0.00 0.00 37 1003.3
20260505231113 85 0 0.0 0.0 0.00 0.00 0.00 36 1003.6
20260505230216 85 0 0.0 0.0 0.00 0.00 0.00 35 1003.5
20260505225617 86 0 0.0 0.0 0.00 0.00 0.00 35 1004.0
20260505224503 86 0 0.0 0.0 0.00 0.00 0.00 35 1003.9
20260505223817 87 0 0.0 0.0 0.00 0.00 0.00 34 1003.8
20260505222703 88 0 0.0 0.0 0.00 0.00 0.00 32 1003.3
20260505221803 89 0 0.0 0.0 0.00 0.00 0.00 31 1003.1
20260505221114 89 0 0.0 0.0 0.00 0.00 0.00 31 1002.9
20260505220003 89 0 0.0 0.0 0.00 0.00 0.00 30 1002.9
20260505215403 89 0 0.0 0.0 0.00 0.00 0.00 29 1003.1
20260505214503 92 0 0.0 0.0 0.00 0.00 0.00 25 1002.9
20260505213603 92 0 0.0 0.0 0.00 0.00 0.00 26 1002.9
20260505212915 92 0 0.0 0.0 0.00 0.00 0.00 24 1002.9
20260505211803 92 0 0.0 0.0 0.00 0.00 0.00 25 1003.1
20260505210903 94 0 0.0 0.0 0.00 0.00 0.00 23 1003.1
20260505210003 94 0 0.0 0.0 0.00 0.00 0.00 21 1003.3
20260505205613 95 0 0.0 0.0 0.00 0.00 0.00 22 1003.2
20260505204716 94 0 0.0 0.0 0.00 0.00 0.00 23 1003.2
20260505203603 94 0 0.0 0.0 0.00 0.00 0.00 23 1003.3
20260505202703 93 0 0.0 0.0 0.00 0.00 0.00 25 1003.2
20260505201803 93 0 0.0 0.0 0.00 0.00 0.00 25 1003.5
20260505201115 93 0 0.0 0.0 0.00 0.00 0.00 24 1003.7
20260505200217 93 0 0.0 0.0 0.00 0.00 0.00 26 1003.8
20260505195403 93 0 0.0 0.0 0.00 0.00 0.00 25 1003.8
20260505194716 92 0 0.0 0.0 0.00 0.00 0.00 26 1003.9
20260505193814 92 0 0.0 0.0 0.00 0.00 0.00 26 1004.0
20260505192703 92 0 0.0 0.0 0.00 0.00 0.00 29 1004.1
20260505192013 92 0 0.0 0.0 0.00 0.00 0.00 29 1004.2
20260505190903 91 0 0.0 0.0 0.00 0.00 0.00 30 1004.3
20260505190003 90 0 0.0 0.0 0.00 0.00 0.00 32 1004.3
20260505185615 90 0 0.0 0.0 0.00 0.00 0.00 33 1004.3
20260505184717 90 0 0.0 0.0 0.00 0.00 0.00 33 1004.5
20260505183603 89 0 0.0 0.0 0.00 0.00 0.00 39 1004.6
20260505182703 89 0 0.0 0.0 0.00 0.00 0.00 38 1004.9
20260505181803 88 0 0.0 0.0 0.00 0.00 0.00 39 1005.0
20260505180903 87 0 0.0 0.0 0.00 0.00 0.00 42 1005.1
20260505180003 86 0 0.0 0.0 0.00 0.00 0.00 42 1005.1
20260505175615 86 0 0.0 0.0 0.00 0.00 0.00 43 1005.2
20260505174503 86 0 0.0 0.0 0.00 0.00 0.00 46 1005.1
20260505173815 86 0 0.0 0.0 0.00 0.00 0.00 46 1005.1
20260505172917 85 0 0.0 0.0 0.00 0.00 0.00 47 1005.1
20260505171803 85 0 0.0 0.0 0.00 0.00 0.00 48 1005.1
20260505171117 84 0 0.0 0.0 0.00 0.00 0.00 48 1005.2
20260505170003 83 0 0.0 0.0 0.00 0.00 0.00 54 1005.3
20260505165403 83 0 0.0 0.0 0.00 0.00 0.00 54 1005.2
20260505164503 82 0 0.0 0.0 0.00 0.00 0.00 55 1005.1
20260505163816 82 0 0.0 0.0 0.00 0.00 0.00 57 1005.2
20260505162703 81 0 0.0 0.0 0.00 0.00 0.00 57 1005.3
20260505162015 80 0 0.0 0.0 0.00 0.00 0.00 58 1005.3
20260505160903 80 0 0.0 0.0 0.00 0.00 0.00 60 1005.4
20260505152703 77 0 0.0 0.0 0.00 0.00 0.00 71 1005.0
20260505151803 77 0 0.0 0.0 0.00 0.00 0.00 70 1004.9
20260505151113 77 0 0.0 0.0 0.00 0.00 0.00 70 1004.9
20260505150216 76 0 0.0 0.0 0.00 0.00 0.00 71 1004.8
20260505140216 73 0 0.0 0.0 0.00 0.00 0.00 76 1004.6
20260505124503 69 0 0.0 0.0 0.00 0.00 0.00 83 1003.7
20260505123813 69 0 0.0 0.0 0.00 0.00 0.00 83 1003.4
20260505122915 69 0 0.0 0.0 0.00 0.00 0.00 83 1003.6
20260505122013 68 0 0.0 0.0 0.00 0.00 0.00 84 1003.3
20260505120903 68 0 0.0 0.0 0.00 0.00 0.00 84 1003.2
20260505120004 68 0 0.0 0.0 0.00 0.00 0.00 84 1003.2
20260505115614 68 0 0.0 0.0 0.00 0.00 0.00 84 1003.2
20260505114716 68 0 0.0 0.0 0.00 0.00 0.00 84 1003.2
20260505113814 68 0 0.0 0.0 0.00 0.00 0.00 84 1003.1
20260505112703 68 0 0.0 0.0 0.00 0.00 0.00 83 1003.0
20260505112013 68 0 0.0 1.0 0.00 0.00 0.00 83 1003.0
20260505110903 69 0 0.0 0.0 0.00 0.00 0.00 82 1002.8
20260505110213 69 0 0.0 0.0 0.00 0.00 0.00 82 1002.8
20260505101803 69 0 0.0 0.0 0.00 0.00 0.00 81 1002.8
20260505100903 69 0 0.0 0.0 0.00 0.00 0.00 82 1002.8
20260505100003 69 0 0.0 0.0 0.00 0.00 0.00 82 1003.0
20260505095403 69 0 0.0 0.0 0.00 0.00 0.00 82 1002.9
20260505094503 69 0 0.0 0.0 0.00 0.00 0.00 82 1002.9
20260505093603 69 0 0.0 0.0 0.00 0.00 0.00 81 1002.8
20260505092912 69 0 0.0 0.0 0.00 0.00 0.00 81 1002.8
20260505092015 69 0 0.0 0.0 0.00 0.00 0.00 81 1003.1
20260505091117 70 0 0.0 0.0 0.00 0.00 0.00 80 1003.2
20260505090214 70 0 0.0 0.0 0.00 0.00 0.00 80 1003.2
20260505085403 70 0 0.0 0.0 0.00 0.00 0.00 80 1003.2
20260505084713 70 0 0.0 0.0 0.00 0.00 0.00 79 1003.3
20260505083603 70 0 0.0 0.0 0.00 0.00 0.00 79 1003.3
20260505082703 70 0 0.0 0.0 0.00 0.00 0.00 79 1003.4
20260505081803 70 0 0.0 0.0 0.00 0.00 0.00 79 1003.5
20260505080903 70 0 0.0 0.0 0.00 0.00 0.00 78 1003.5
20260505080215 71 0 0.0 0.0 0.00 0.00 0.00 78 1003.6
20260505075617 71 0 0.0 0.0 0.00 0.00 0.00 77 1003.6
20260505074503 71 0 0.0 0.0 0.00 0.00 0.00 77 1003.7
20260505073816 71 0 0.0 0.0 0.00 0.00 0.00 77 1003.8
20260505072703 71 0 0.0 0.0 0.00 0.00 0.00 76 1003.9
20260505072016 72 0 0.0 0.0 0.00 0.00 0.00 76 1003.9
20260505071113 72 0 0.0 0.0 0.00 0.00 0.00 75 1003.8
20260505070216 72 0 0.0 0.0 0.00 0.00 0.00 74 1004.0
20260505065403 72 0 0.0 0.0 0.00 0.00 0.00 74 1004.2
20260505064503 72 0 0.0 0.0 0.00 0.00 0.00 74 1004.2
20260505063603 73 0 0.0 0.0 0.00 0.00 0.00 73 1004.3
20260505062914 73 0 0.0 0.0 0.00 0.00 0.00 72 1004.1
20260505061803 73 0 0.0 0.0 0.00 0.00 0.00 72 1004.1
20260505061114 74 0 0.0 0.0 0.00 0.00 0.00 71 1004.1
20260505060216 74 0 0.0 0.0 0.00 0.00 0.00 70 1004.1
20260505055613 74 0 0.0 0.0 0.00 0.00 0.00 70 1004.1